Location: Plainartige
(45.6866°N, 1.7993°E)
Time: 20:00:46
(UTC+00:00)

RS-15 - Pass Details

Date: 30 June 2022
Orbit: 1881 x 2163 km, 64.8° (Epoch: 19 August)

Event Time Altitude Azimuth Distance (km) Brightness Sun altitude
Rises 00:19:14 0° 323° (NW) 5,700 11.2 -20.9°
Reaches altitude 10° 00:22:45 10° 321° (NW) 4,690 10.6 -20.9°
Maximum altitude 00:34:48 63° 245° (WSW) 2,315 8.2 -20.6°
Enters shadow 00:42:35 25° 173° (S) 3,489 8.8 -20.3°
